COSMOS 2246

Satellite information

Favourite Embed

Satellite Type and Status

PAYLOADIN ORBIT

Key statistics

Satellite COSMOS 2246 at a glance.

Uptime

11687

Days in orbit

Revolutions

≈ 12.6

Per day

Orbit

LEO

Low Earth Orbit

Inclination

82.6

Latest

Satellite identification and parameters

Extended collection of information and parameters for COSMOS 2246.

Object identification

Identified? True

Debris? False

Object name: COSMOS 2246

International designator: 1993-030B

Object number (NORAD): 22647

Object ID (CCSDS): 22647

Country: COMMONWEALTH OF INDEPENDENT STATES (CIS)

Current information (Y/N): Y

RCS size: MEDIUM

Orbital parameters

Period: 113.958 minutes

Inclination: 82.5879 deg

SMA: 7786.159 km

Apoapsis: 1416.785 km

Periapsis: 1399.263 km

RAAN: 214.6105 deg

Eccentricy: 0.0011252

Argument of periapsis: 110.4079 deg

Mean anomaly: 249.8223 deg

Mean motion: 12.63623918 rev/day

Mean motion (dot): 0.00000012 rev/day2

B* drag term: 0.0000067455 1/REarth

Two-line elements (TLE)

Creation date: May 10, 2025, 2:32 a.m.

Reference frame: TEME

Reference center: EARTH

Epoch: May 9, 2025, 5:55 p.m. UTC

TLE line 0: 0 COSMOS 2246

TLE line 1: 1 22647U 93030B 25129.74712746 .00000012 00000-0 67455-5 0 9998

TLE line 2: 2 22647 82.5879 214.6105 0011252 110.4079 249.8223 12.63623918475573

Live tracking on map

Real-time ground track for satellite COSMOS 2246.

In-orbit conjunctions

A list of the most updated potential collisions computed for object COSMOS 2246.

Target Orbit TCA Probability of collision Miss distance Type
DELTA 1 DEB SSO 2025-02-19 05:40:12 0.0001080194 228.0 (m) DEBRIS

Associated space launch

Second generation store-dump military communications satellite

COSMOS 2246 was lifted into orbit during the mission ‘Tsiklon-3 | Strela-3 89 to 94’, on board a Tsiklon-3 space rocket.

The launch took place on May 11, 1993, 2:56 p.m. from 32/1.

For more information about the launch, click the button.

Launch to space Tsiklon-3 | Strela-3 89 to 94
Tsiklon-3 | Strela-3 89 to 94

Agency: N/A

Status: Launch Successful

Launch date: May 11, 1993, 2:56 p.m. UTC

Rocket: Tsiklon-3

Launch pad: 32/1

Location: Plesetsk Cosmodrome, Russian Federation

...

Latest news about this satellite

There are no fresh news available about this satellite. Check back as we update our databases every day.


Newsletter sign-up

Weekly statistics, charts and insights to help you stay on top of the space industry.